Location: Taaricht
(32.5378°N, 5.4251°W)
Time: 13:57:44
(UTC+00:00)

Cosmos 2341 Rocket - Pass Details

Date: 09 April 2020
Orbit: 968 x 1005 km, 82.9° (Epoch: 04 June)

Event Time Altitude Azimuth Distance (km) Brightness Sun altitude
Rises 20:47:42 0° 354° (N) 3,733 7.5 -24.7°
Reaches altitude 10° 20:50:14 10° 354° (N) 2,782 6.8 -25.2°
Maximum altitude 20:56:39 90° 90° (E) 1,009 3.9 -26.3°
Enters shadow 20:58:30 50° 175° (S) 1,256 4.3 -26.7°
